Change the Weather History Date:

Thursday, March 7, 2013

  Actual Average Record
Temperature  
Mean Temperature 45 °F -  
Max Temperature 55 °F 60 °F 123 °F (2004)
Min Temperature 35 °F 39 °F 30 °F (2006)
Degree Days  
Heating Degree Days 20    
Moisture  
Dew Point 27 °F    
Average Humidity 51    
Maximum Humidity 72    
Minimum Humidity 34    
Precipitation  
Precipitation 0.00 in - - ()
Sea Level Pressure  
Sea Level Pressure 30.11 in    
Wind  
Wind Speed 14 mph (NW)    
Max Wind Speed 21 mph    
Max Gust Speed 31 mph    
Visibility 10 miles    
Events      
Averages and records for this station are not official NWS values.
T = Trace of Precipitation, MM = Missing Value Source: NWS Daily Summary

Daily Weather History Graph

Daily Weather History Graph

Search for Another Location

Airport or City:

Trip Planner

Search our weather history database for the weather conditions in past years. The results will help you decide how hot, cold, wet, or windy it might be!

Date:

Astronomy

Mar. 07, 2013 Rise Set
Actual Time 6:30 AM EST 6:11 PM EST
Civil Twilight 6:05 AM EST 6:36 PM EST
Nautical Twilight 5:36 AM EST 7:05 PM EST
Astronomical Twilight 5:07 AM EST 7:34 PM EST
Moon 3:20 AM EST (3/7) 2:04 PM EST (3/7)
Length of Visible Light 12h 30m
Length of Day
11h 40m
Waning Crescent, 20% of the Moon is Illuminated
Mar 7
Waning Crescent
Mar 11
New
Mar 19
First Quarter
Mar 27
Full
Apr 3
Last Quarter

Hourly Weather History & Observations

Time (EST) Temp. Windchill Dew Point Humidity Pressure Visibility Wind Dir Wind Speed Gust Speed Precip Events Conditions
12:56 AM 42.1 °F 33.6 °F 28.0 °F 58% 29.97 in 10.0 mi NNW 18.4 mph 29.9 mph N/A   Clear
1:56 AM 42.1 °F 34.9 °F 27.0 °F 55% 30.01 in 10.0 mi NW 13.8 mph - N/A   Clear
2:56 AM 39.9 °F 31.8 °F 27.0 °F 60% 30.01 in 10.0 mi WNW 15.0 mph - N/A   Clear
3:56 AM 39.0 °F 31.4 °F 27.0 °F 62% 30.03 in 10.0 mi NW 12.7 mph - N/A   Clear
4:56 AM 37.9 °F 30.9 °F 27.0 °F 65% 30.04 in 10.0 mi NW 10.4 mph - N/A   Clear
5:56 AM 37.0 °F 31.0 °F 27.0 °F 67% 30.08 in 10.0 mi WNW 8.1 mph - N/A   Clear
6:56 AM 35.1 °F 28.6 °F 27.0 °F 72% 30.10 in 9.0 mi WNW 8.1 mph - N/A   Clear
7:56 AM 39.0 °F 31.4 °F 28.0 °F 65% 30.14 in 10.0 mi WNW 12.7 mph - N/A   Clear
8:56 AM 44.1 °F 37.1 °F 27.0 °F 51% 30.15 in 9.0 mi NNW 15.0 mph - N/A   Clear
9:56 AM 46.9 °F - 26.1 °F 44% 30.14 in 10.0 mi North 19.6 mph 31.1 mph N/A   Clear
10:56 AM 50.0 °F - 25.0 °F 38% 30.13 in 10.0 mi NNW 15.0 mph 27.6 mph N/A   Clear
11:56 AM 52.0 °F - 25.0 °F 35% 30.12 in 10.0 mi NNW 18.4 mph 25.3 mph N/A   Clear
12:56 PM 54.0 °F - 26.1 °F 34% 30.11 in 10.0 mi North 20.7 mph 24.2 mph N/A   Clear
1:56 PM 55.0 °F - 27.0 °F 34% 30.08 in 10.0 mi NW 11.5 mph 21.9 mph N/A   Clear
2:56 PM 55.0 °F - 28.0 °F 35% 30.08 in 10.0 mi WNW 17.3 mph 25.3 mph N/A   Partly Cloudy
3:56 PM 54.0 °F - 27.0 °F 35% 30.09 in 10.0 mi WNW 20.7 mph 25.3 mph N/A   Partly Cloudy
4:56 PM 54.0 °F - 28.0 °F 37% 30.10 in 10.0 mi NNW 15.0 mph 23.0 mph N/A   Clear
6:56 PM 48.0 °F - 27.0 °F 44% 30.17 in 10.0 mi NNW 13.8 mph 19.6 mph N/A   Clear
7:56 PM 46.0 °F 41.9 °F 28.0 °F 50% 30.18 in 10.0 mi NNW 8.1 mph - N/A   Clear
8:56 PM 45.0 °F 40.6 °F 27.0 °F 49% 30.19 in 10.0 mi NNW 8.1 mph - N/A   Clear
9:56 PM 42.1 °F 37.7 °F 27.0 °F 55% 30.19 in 10.0 mi NW 6.9 mph - N/A   Clear
10:56 PM 39.0 °F 32.8 °F 27.0 °F 62% 30.20 in 10.0 mi NW 9.2 mph - N/A   Clear
11:56 PM 37.9 °F 33.5 °F 26.1 °F 62% 30.21 in 10.0 mi NW 5.8 mph - N/A   Clear